WGS 6 (USA 244)

导读

WGS 6(USA 244)是美国于2013年8月8日发射的宽带全球卫星通信系统卫星,属于美军新一代军事通信卫星,运行于地球同步轨道。它主要为美军及盟军提供高容量、高速率的全球通信支持,增强战区宽带通信能力,提升多平台互联和情报传输效率,补充WGS卫星星座的通信覆盖,是美军全球军事指挥通信体系的重要组成部分。

Basic Information
目录编号:
39222
目录名称:
WGS 6 (USA 244)
国际标识:
2013-041A
轨道中心:
EARTH
卫星名称:
WGS 6 (USA 244)
卫星全名:
--
卫星状态:
在轨 (已飞行4723 天)
发射日期:
2013-08-08 UTC
国别 :
美国 (US)
星等 :
--
Orbit Information
数据来源 国际轨道数据 AOE轨道数据
星历时间 2026-07-14T01:57:11+0800
12小时前
查看轨道信息
2026-07-13T14:00:00+0800
1天前
查看轨道信息
半长轴 42165.429km 42164.868km
偏心率 0.0000476 0.0000945
轨道倾角 0.018° 0.021°
近地点辐角 201.802° 178.421°
升交点赤经 33.066° 45.136°
平近点角 190.861° 22.388°
近地点 35785.284km 35782.746km
远地点 35789.3km 35790.716km
周期 1436.132分钟 1436.104分钟
每日圈数 1.002693 1.002713
Detailed Information
使用方式:
暂无
2D Orbit Map
3D Orbit Map
Orbit Altitude Analysis Chart
Orbit Inclination Analysis Chart
Orbit Comprehensive Analysis Chart
View Comprehensive Chart